QPF
0.00 0.00 0.00 0.00 0.00 0.00 0.00 0.00 0.00 0.00 0.00 0.00 0.01 0.01 0.02 0.03 0.01 0.00 0.00 0.00 0.00 0.00 0.00 0.00 0.00 0.00 0.00 0.00 0.00 0.00 0.00 0.00 0.00 0.00 0.00 0.00 0.00 0.00 0.00 0.00 0.00 0.00 0.00 0.00 0.00
0.00 0.00 0.00 0.00 0.00 0.00 0.00 0.00 0.00 0.00 0.00 0.00 0.00 0.00 0.01 0.00 0.01 0.02 0.00 0.00 0.00 0.00 0.00 0.00 0.00 0.01 0.01 0.00 0.00 0.00 0.00 0.00 0.00 0.00 0.00 0.00 0.00 0.00 0.00 0.00 0.00 0.00 0.00 0.00 0.00
0.00 0.00 0.00 0.00 0.00 0.00 0.00 0.00 0.00 0.00 0.00 0.00 0.00 0.00 0.01 0.00 0.00 0.00 0.00 0.00 0.00 0.00 0.00 0.00 0.00 0.02 0.03 0.01 0.00 0.00 0.00 0.00 0.00 0.00 0.00 0.00 0.00 0.00 0.00 0.00 0.00 0.00 0.00 0.00 0.00
0.00 0.00 0.00 0.00 0.00 0.00 0.00 0.00 0.00 0.00 0.00 0.00 0.00 0.01 0.01 0.00 0.00 0.00 0.00 0.00 0.00 0.00 0.00 0.00 0.00 0.01 0.02 0.02 0.00 0.00 0.00 0.00 0.00 0.00 0.00 0.00 0.00 0.00 0.00 0.00 0.00 0.00 0.00 0.00 0.00
0.00 0.00 0.00 0.00 0.00 0.00 0.00 0.00 0.00 0.00 0.00 0.00 0.00 0.01 0.00 0.01 0.00 0.00 0.00 0.00 0.00 0.00 0.00 0.00 0.00 0.01 0.01 0.01 0.01 0.00 0.00 0.00 0.00 0.00 0.00 0.00 0.00 0.00 0.00 0.00 0.00 0.00 0.00 0.00 0.00
0.00 0.00 0.00 0.00 0.00 0.00 0.00 0.00 0.00 0.00 0.00 0.01 0.01 0.01 0.00 0.00 0.00 0.00 0.00 0.00 0.00 0.00 0.00 0.00 0.00 0.00 0.00 0.00 0.01 0.00 0.00 0.00 0.00 0.00 0.00 0.00 0.00 0.00 0.00 0.00 0.00 0.00 0.00 0.00 0.00
0.00 0.00 0.00 0.00 0.00 0.00 0.00 0.00 0.00 0.00 0.00 0.00 0.02 0.01 0.01 0.00 0.00 0.00 0.00 0.00 0.00 0.00 0.00 0.00 0.00 0.03 0.01 0.02 0.00 0.00 0.00 0.00 0.00 0.00 0.00 0.00 0.00 0.00 0.00 0.00 0.00 0.00 0.00 0.00 0.00
0.00 0.00 0.00 0.00 0.00 0.00 0.00 0.00 0.00 0.00 0.00 0.00 0.01 0.02 0.01 0.00 0.00 0.00 0.00 0.00 0.00 0.00 0.00 0.00 0.00 0.02 0.06 0.03 0.02 0.02 0.02 0.00 0.00 0.00 0.00 0.00 0.00 0.00 0.00 0.00 0.00 0.00 0.00 0.00 0.00
0.00 0.00 0.00 0.00 0.00 0.00 0.01 0.01 0.01 0.01 0.01 0.00 0.00 0.02 0.00 0.00 0.00 0.00 0.00 0.00 0.00 0.00 0.00 0.00 0.01 0.04 0.05 0.06 0.04 0.03 0.01 0.01 0.00 0.00 0.00 0.00 0.00 0.00 0.00 0.00 0.00 0.00 0.00 0.00 0.00
0.00 0.00 0.00 0.00 0.00 0.00 0.01 0.03 0.02 0.01 0.02 0.01 0.00 0.01 0.00 0.00 0.00 0.00 0.00 0.00 0.00 0.01 0.02 0.03 0.03 0.04 0.05 0.05 0.02 0.01 0.01 0.00 0.00 0.00 0.00 0.00 0.00 0.00 0.00 0.00 0.00 0.00 0.00 0.00 0.00
0.00 0.00 0.00 0.00 0.00 0.00 0.01 0.01 0.00 0.01 0.01 0.00 0.00 0.00 0.00 0.00 0.00 0.00 0.00 0.00 0.00 0.03 0.05 0.03 0.05 0.02 0.01 0.01 0.00 0.00 0.00 0.00 0.00 0.00 0.00 0.00 0.00 0.00 0.00 0.00 0.00 0.00 0.00 0.00 0.00
0.00 0.00 0.00 0.01 0.01 0.01 0.03 0.00 0.00 0.00 0.00 0.00 0.00 0.00 0.00 0.00 0.00 0.01 0.00 0.00 0.00 0.00 0.03 0.07 0.03 0.00 0.01 0.02 0.01 0.01 0.00 0.00 0.00 0.00 0.00 0.00 0.00 0.00 0.00 0.00 0.00 0.00 0.00 0.00 0.00
0.00 0.00 0.00 0.00 0.01 0.02 0.02 0.00 0.00 0.00 0.00 0.00 0.00 0.00 0.00 0.00 0.00 0.05 0.00 0.00 0.00 0.01 0.04 0.04 0.01 0.00 0.02 0.03 0.02 0.01 0.00 0.00 0.00 0.00 0.00 0.00 0.00 0.00 0.00 0.00 0.00 0.00 0.00 0.00 0.00
0.00 0.00 0.00 0.01 0.01 0.01 0.02 0.00 0.00 0.00 0.00 0.00 0.00 0.00 0.00 0.03 0.01 0.00 0.00 0.02 0.02 0.03 0.03 0.01 0.02 0.03 0.02 0.02 0.01 0.01 0.00 0.00 0.00 0.00 0.00 0.00 0.00 0.00 0.00 0.00 0.00 0.00 0.00 0.00 0.00
0.00 0.00 0.00 0.00 0.01 0.01 0.00 0.00 0.00 0.00 0.00 0.00 0.00 0.00 0.00 0.01 0.02 0.01 0.00 0.01 0.04 0.06 0.01 0.00 0.01 0.02 0.01 0.01 0.00 0.00 0.00 0.00 0.00 0.00 0.00 0.00 0.00 0.00 0.00 0.00 0.00 0.00 0.00 0.00 0.00
0.00 0.00 0.00 0.01 0.01 0.01 0.00 0.00 0.00 0.00 0.00 0.00 0.00 0.01 0.01 0.01 0.01 0.04 0.01 0.04 0.04 0.03 0.01 0.00 0.02 0.02 0.01 0.01 0.00 0.00 0.00 0.01 0.00 0.00 0.00 0.00 0.00 0.00 0.00 0.00 0.00 0.00 0.00 0.00 0.00
0.01 0.00 0.00 0.00 0.02 0.02 0.00 0.00 0.00 0.00 0.00 0.01 0.00 0.01 0.01 0.00 0.00 0.01 0.04 0.05 0.01 0.00 0.00 0.00 0.01 0.01 0.02 0.02 0.01 0.01 0.01 0.02 0.01 0.01 0.00 0.00 0.00 0.00 0.00 0.00 0.00 0.00 0.00 0.00 0.00
0.01 0.01 0.01 0.00 0.03 0.03 0.00 0.00 0.00 0.00 0.00 0.00 0.00 0.01 0.01 0.00 0.00 0.01 0.03 0.02 0.01 0.00 0.00 0.00 0.00 0.01 0.01 0.02 0.01 0.01 0.00 0.00 0.01 0.00 0.00 0.00 0.00 0.00 0.00 0.00 0.00 0.00 0.00 0.00 0.00
0.02 0.01 0.01 0.00 0.03 0.04 0.01 0.00 0.00 0.01 0.00 0.00 0.01 0.01 0.01 0.00 0.00 0.01 0.02 0.00 0.00 0.00 0.01 0.00 0.00 0.00 0.02 0.01 0.00 0.00 0.00 0.00 0.00 0.00 0.00 0.00 0.00 0.00 0.00 0.00 0.00 0.00 0.00 0.00 0.00
0.01 0.00 0.00 0.00 0.03 0.03 0.00 0.00 0.01 0.01 0.00 0.00 0.00 0.00 0.00 0.00 0.00 0.01 0.01 0.00 0.00 0.00 0.01 0.00 0.00 0.01 0.01 0.01 0.00 0.00 0.00 0.00 0.00 0.00 0.00 0.00 0.00 0.00 0.00 0.00 0.00 0.00 0.00 0.00 0.00
0.00 0.00 0.00 0.00 0.02 0.01 0.00 0.00 0.01 0.01 0.00 0.00 0.00 0.00 0.00 0.00 0.00 0.00 0.00 0.00 0.00 0.00 0.00 0.00 0.00 0.00 0.00 0.01 0.00 0.00 0.00 0.00 0.00 0.00 0.00 0.00 0.00 0.00 0.00 0.00 0.00 0.00 0.00 0.00 0.00
0.00 0.00 0.00 0.00 0.00 0.00 0.00 0.00 0.01 0.01 0.01 0.00 0.00 0.00 0.00 0.00 0.00 0.00 0.00 0.00 0.00 0.00 0.00 0.00 0.00 0.00 0.00 0.00 0.00 0.00 0.00 0.00 0.00 0.00 0.00 0.00 0.00 0.00 0.00 0.00 0.00 0.00 0.00 0.00 0.00
0.00 0.01 0.01 0.00 0.00 0.00 0.00 0.00 0.01 0.00 0.01 0.00 0.00 0.00 0.00 0.00 0.00 0.00 0.00 0.00 0.00 0.00 0.00 0.00 0.00 0.00 0.00 0.00 0.00 0.00 0.00 0.00 0.00 0.00 0.00 0.00 0.00 0.00 0.00 0.00 0.00 0.00 0.00 0.00 0.00
0.00 0.01 0.01 0.01 0.00 0.01 0.00 0.00 0.00 0.00 0.00 0.00 0.01 0.00 0.00 0.00 0.00 0.00 0.00 0.00 0.00 0.00 0.00 0.00 0.00 0.00 0.00 0.00 0.00 0.00 0.00 0.00 0.00 0.00 0.00 0.00 0.00 0.00 0.00 0.00 0.00 0.00 0.00 0.00 0.00
0.00 0.00 0.00 0.00 0.00 0.00 0.00 0.00 0.00 0.01 0.00 0.01 0.02 0.00 0.00 0.00 0.00 0.00 0.00 0.00 0.00 0.00 0.00 0.00 0.00 0.00 0.00 0.00 0.00 0.00 0.00 0.00 0.00 0.00 0.00 0.00 0.00 0.00 0.00 0.00 0.00 0.00 0.00 0.00 0.00
0.00 0.00 0.00 0.00 0.00 0.00 0.00 0.00 0.00 0.00 0.01 0.01 0.01 0.00 0.00 0.00 0.00 0.00 0.00 0.00 0.00 0.00 0.00 0.00 0.00 0.00 0.00 0.00 0.00 0.00 0.00 0.00 0.00 0.00 0.00 0.00 0.00 0.00 0.00 0.00 0.00 0.00 0.00 0.00 0.00
0.00 0.00 0.00 0.00 0.00 0.00 0.00 0.00 0.00 0.00 0.00 0.00 0.00 0.00 0.00 0.00 0.00 0.00 0.00 0.00 0.00 0.00 0.00 0.00 0.00 0.00 0.00 0.00 0.00 0.00 0.00 0.00 0.00 0.00 0.00 0.00 0.00 0.00 0.00 0.00 0.00 0.00 0.00 0.00 0.00
MSLP
1015.92 1015.64 1015.30 1015.26 1015.14 1014.99 1014.77 1014.60 1014.70 1014.74 1014.61 1014.61 1014.68 1014.78 1014.96 1015.12 1015.30 1015.16 1014.04 1013.14 1013.11 1013.58 1013.50 1012.51 1011.91 1011.32 1011.12 1010.69 1010.20 1009.88 1008.73 1007.37 1006.82 1006.50 1006.14 1006.32 1006.55 1006.24 1006.48 1006.16 1005.71 1005.23 1004.88 1005.06 1005.81
1015.70 1015.57 1015.30 1015.11 1015.12 1015.09 1014.83 1014.64 1014.63 1014.78 1014.79 1014.67 1014.70 1014.79 1014.99 1015.11 1014.83 1013.99 1013.22 1013.27 1013.51 1013.71 1013.19 1012.22 1011.37 1010.87 1010.55 1010.26 1009.91 1009.62 1008.38 1007.33 1006.78 1006.47 1006.47 1006.28 1006.70 1006.63 1006.52 1005.79 1005.30 1004.84 1004.55 1004.84 1005.10
1015.51 1015.43 1015.26 1015.04 1015.09 1015.15 1014.85 1014.61 1014.41 1014.69 1014.78 1014.81 1014.80 1014.94 1015.09 1014.98 1014.30 1012.53 1012.42 1012.59 1012.98 1013.46 1013.00 1012.47 1012.03 1011.51 1010.55 1010.02 1009.50 1009.04 1008.04 1007.39 1006.86 1006.72 1007.07 1006.96 1006.78 1006.53 1006.36 1005.83 1005.39 1004.83 1004.69 1004.80 1004.91
1015.24 1015.28 1015.20 1015.00 1015.04 1015.11 1014.92 1014.58 1014.35 1014.50 1014.65 1014.82 1014.88 1014.97 1015.12 1014.79 1013.27 1012.04 1012.40 1012.48 1012.74 1013.02 1012.79 1012.21 1011.96 1011.53 1010.84 1009.75 1009.18 1008.53 1008.14 1007.73 1006.91 1007.06 1007.46 1007.17 1006.84 1006.51 1006.14 1005.73 1005.43 1005.21 1004.97 1004.94 1004.98
1014.97 1015.08 1015.03 1014.88 1014.96 1015.06 1014.91 1014.64 1014.42 1014.31 1014.51 1014.78 1014.92 1015.01 1015.20 1014.17 1012.32 1012.40 1012.85 1012.84 1012.22 1012.40 1012.21 1011.79 1011.46 1011.21 1010.21 1009.48 1009.40 1008.42 1007.91 1007.48 1007.21 1006.93 1007.29 1007.27 1006.81 1006.48 1005.99 1005.65 1005.21 1004.73 1004.57 1004.59 1004.73
1014.61 1014.75 1014.85 1014.64 1014.76 1014.85 1014.88 1014.66 1014.42 1014.11 1014.35 1014.51 1014.81 1015.09 1014.81 1013.28 1011.64 1011.67 1012.12 1012.29 1012.19 1011.82 1011.74 1011.73 1011.26 1010.80 1010.22 1009.76 1008.77 1008.51 1007.94 1007.57 1006.91 1006.87 1006.94 1006.90 1006.23 1006.11 1005.54 1005.35 1004.53 1004.21 1004.00 1004.25 1004.46
1014.22 1014.32 1014.51 1014.45 1014.53 1014.72 1014.68 1014.58 1014.41 1014.08 1014.13 1014.37 1014.67 1014.82 1014.11 1012.54 1011.87 1011.78 1011.93 1011.92 1011.97 1012.02 1011.55 1011.93 1011.49 1010.88 1010.61 1009.99 1009.09 1008.72 1008.17 1007.38 1006.85 1006.69 1006.38 1006.52 1005.60 1005.13 1005.02 1004.70 1004.16 1003.93 1003.60 1003.97 1004.81
1013.84 1013.98 1014.03 1014.16 1014.20 1014.55 1014.52 1014.42 1014.34 1014.17 1014.05 1014.19 1014.60 1014.56 1013.26 1012.40 1012.41 1012.19 1012.13 1012.05 1012.05 1012.00 1011.92 1011.63 1012.10 1011.63 1011.28 1010.46 1009.17 1008.71 1008.43 1007.31 1006.58 1006.31 1005.92 1006.33 1004.35 1004.46 1003.80 1003.85 1003.76 1003.52 1003.61 1004.34 1005.14
1013.36 1013.56 1013.62 1013.80 1013.87 1014.36 1014.44 1014.29 1014.14 1014.11 1014.12 1014.21 1014.52 1014.34 1012.75 1011.91 1011.97 1011.69 1011.85 1011.66 1011.56 1011.74 1011.85 1011.78 1011.76 1011.97 1012.33 1011.39 1010.17 1008.39 1007.10 1006.65 1006.61 1005.58 1005.25 1005.20 1004.18 1004.00 1003.66 1003.61 1003.54 1003.14 1003.24 1004.22 1005.01
1012.93 1013.11 1013.23 1013.44 1013.57 1014.01 1014.38 1014.21 1013.93 1014.07 1014.22 1014.28 1014.03 1014.16 1012.07 1011.28 1011.06 1011.21 1011.37 1011.55 1011.53 1011.53 1011.59 1011.58 1011.75 1011.74 1011.96 1010.90 1008.36 1007.08 1006.58 1006.05 1005.46 1004.75 1004.66 1004.51 1003.89 1003.87 1003.44 1003.18 1002.91 1002.85 1002.69 1003.89 1004.88
1012.46 1012.73 1012.89 1013.05 1013.23 1013.82 1014.45 1014.54 1014.81 1014.54 1013.72 1012.56 1012.07 1011.21 1010.74 1010.54 1011.08 1011.09 1011.03 1011.34 1011.73 1011.70 1011.17 1011.03 1011.41 1010.55 1010.27 1010.13 1008.56 1007.01 1006.23 1005.59 1004.25 1003.77 1003.78 1003.53 1003.59 1003.08 1002.65 1002.62 1002.42 1002.30 1002.50 1003.67 1004.87
1012.05 1012.36 1012.57 1012.71 1012.92 1013.48 1014.15 1013.73 1012.97 1013.02 1012.66 1012.17 1011.47 1011.20 1010.94 1011.10 1010.75 1010.67 1010.80 1011.05 1011.21 1010.80 1011.06 1011.37 1010.41 1010.11 1009.82 1009.72 1008.81 1007.11 1005.62 1004.57 1003.69 1003.59 1004.11 1003.86 1003.00 1002.27 1001.90 1001.81 1001.73 1001.67 1002.30 1003.44 1004.97
1011.64 1012.02 1012.27 1012.50 1012.82 1013.30 1013.27 1012.87 1012.85 1012.77 1012.77 1011.80 1011.02 1010.63 1010.97 1011.16 1010.58 1009.96 1010.43 1010.30 1009.89 1010.29 1010.27 1010.28 1009.03 1009.77 1009.45 1009.30 1007.54 1006.34 1005.09 1003.86 1003.56 1003.60 1004.30 1004.02 1002.66 1001.66 1001.32 1001.27 1001.03 1001.48 1001.87 1003.21 1004.88
1011.19 1011.58 1011.97 1012.45 1013.28 1012.09 1012.32 1012.46 1012.94 1013.06 1012.77 1011.12 1010.61 1010.11 1010.83 1011.43 1010.41 1009.83 1009.56 1009.79 1009.67 1009.65 1010.03 1010.37 1010.11 1010.36 1009.09 1008.51 1007.74 1005.80 1004.49 1004.17 1003.91 1004.05 1003.62 1003.39 1001.41 999.60 999.45 1000.31 1001.24 1001.55 1001.89 1003.28 1004.75
1010.76 1011.15 1011.53 1011.90 1011.47 1011.99 1012.70 1012.64 1013.30 1013.55 1012.29 1010.03 1010.17 1010.26 1010.16 1010.61 1008.76 1008.02 1008.53 1009.34 1009.29 1009.53 1010.82 1009.68 1009.00 1009.88 1008.07 1007.64 1006.39 1004.80 1004.37 1004.41 1004.15 1004.10 1003.96 1003.54 1002.37 999.69 999.20 999.67 1000.33 1001.13 1002.12 1003.52 1004.86
1010.22 1010.66 1011.12 1011.69 1011.65 1011.60 1012.51 1012.84 1013.43 1013.54 1010.54 1009.80 1010.06 1009.95 1009.93 1009.75 1008.60 1008.04 1008.42 1009.26 1009.39 1009.79 1009.97 1008.83 1008.50 1007.97 1006.50 1007.50 1006.47 1004.97 1004.53 1004.70 1004.59 1004.33 1003.75 1002.59 1001.60 999.27 998.76 999.20 999.54 1001.00 1002.38 1003.74 1004.97
1009.60 1010.05 1010.54 1010.25 1010.16 1011.39 1012.52 1012.96 1013.30 1011.36 1009.46 1009.45 1009.48 1009.46 1008.97 1008.60 1008.34 1008.30 1008.90 1009.18 1009.59 1010.35 1009.44 1008.66 1008.85 1008.06 1007.50 1006.50 1005.74 1004.13 1004.38 1004.33 1004.41 1003.89 1002.20 1001.01 1000.68 998.81 999.33 999.90 1000.15 1001.12 1002.52 1003.89 1005.20
1009.03 1009.48 1009.87 1009.78 1010.20 1011.54 1012.12 1012.62 1011.37 1008.66 1008.65 1008.91 1008.74 1008.55 1008.05 1007.50 1007.47 1007.95 1008.81 1008.41 1008.80 1009.15 1008.78 1008.38 1008.60 1007.66 1006.13 1004.88 1003.95 1003.99 1003.21 1002.07 1001.50 1001.43 1000.90 1001.62 1000.21 998.97 999.43 1000.13 1000.49 1001.29 1002.54 1003.99 1005.22
1008.57 1008.98 1009.21 1009.37 1009.87 1011.21 1011.72 1011.16 1009.08 1007.96 1008.25 1008.36 1008.38 1007.65 1007.07 1006.52 1006.45 1006.90 1007.68 1006.78 1007.03 1008.14 1008.60 1007.66 1007.23 1007.01 1005.53 1004.95 1003.78 1003.73 1002.39 1001.73 1000.64 1000.15 999.39 999.89 999.39 999.52 999.86 1000.38 1000.89 1001.31 1002.55 1003.86 1005.03
1008.12 1008.49 1008.32 1008.56 1009.26 1010.61 1010.70 1009.14 1008.22 1007.62 1007.92 1007.77 1007.16 1006.15 1005.28 1005.26 1005.54 1005.40 1005.55 1004.72 1005.66 1006.78 1008.18 1007.23 1007.36 1006.64 1004.91 1003.67 1004.22 1002.83 1001.95 1001.88 1000.63 999.78 998.90 998.68 998.29 998.28 999.42 999.85 1000.81 1001.42 1002.34 1003.65 1004.82
1007.97 1008.16 1006.86 1007.42 1009.10 1009.66 1009.11 1008.24 1007.79 1007.59 1007.47 1007.49 1006.53 1005.33 1003.89 1003.49 1003.79 1003.96 1003.68 1003.58 1004.03 1004.94 1006.46 1005.79 1006.30 1005.82 1004.20 1004.35 1003.56 1003.37 1001.94 1001.58 1000.39 999.64 998.36 998.10 998.06 998.24 999.26 999.89 1000.36 1001.20 1002.05 1003.30 1004.59
1007.53 1007.62 1007.26 1007.85 1008.79 1008.48 1007.87 1007.68 1007.36 1006.83 1006.84 1006.71 1005.85 1004.18 1002.63 1002.00 1002.26 1002.58 1002.40 1002.49 1002.80 1003.73 1004.79 1004.81 1003.90 1004.66 1004.86 1004.14 1003.14 1002.88 1002.15 1001.43 1000.29 1000.05 999.11 998.47 998.72 999.18 999.63 1000.11 1000.59 1001.00 1002.01 1003.18 1004.55
1006.89 1006.68 1007.14 1007.18 1007.32 1007.19 1007.00 1006.88 1006.93 1006.10 1005.75 1005.65 1004.74 1003.35 1001.84 1001.28 1001.44 1001.88 1001.75 1001.50 1002.47 1002.97 1003.07 1003.15 1002.71 1002.76 1004.27 1004.40 1003.64 1002.66 1002.37 1001.79 1000.91 1000.39 999.20 998.64 998.73 999.32 999.77 1000.22 1000.82 1001.26 1002.03 1003.25 1004.56
1006.17 1005.98 1006.28 1006.78 1006.02 1005.78 1006.00 1005.71 1005.58 1005.05 1004.85 1004.53 1003.38 1001.95 1001.28 1000.80 1000.73 1000.67 1000.89 1000.91 1001.64 1001.91 1002.06 1002.04 1001.26 1000.28 1000.66 1000.93 1002.13 1001.73 1001.66 1001.47 1000.74 1000.02 999.22 998.60 998.53 998.97 999.56 1000.11 1000.80 1001.41 1002.28 1003.34 1004.53
1005.59 1004.53 1004.08 1004.89 1004.96 1004.87 1004.84 1004.42 1004.15 1003.83 1003.66 1003.40 1002.74 1001.22 1000.41 1000.04 1000.04 999.91 1000.29 1000.52 1001.31 1001.66 1001.85 1001.76 1000.17 999.67 999.43 999.87 1000.08 1000.37 1000.67 1000.86 1000.45 999.82 999.02 998.34 998.30 998.10 998.72 999.65 1000.50 1001.29 1002.20 1003.28 1004.42
1004.66 1003.91 1003.69 1003.40 1003.47 1003.73 1003.82 1003.34 1003.18 1003.10 1002.75 1002.22 1001.85 1000.76 999.76 999.07 999.22 999.24 999.68 999.81 1000.24 1001.17 1001.39 1001.60 1000.53 1000.02 999.78 999.89 999.84 999.80 999.87 999.83 999.61 999.18 998.83 998.47 997.72 998.05 998.35 999.44 1000.46 1001.29 1002.14 1003.10 1004.28
1004.07 1003.54 1002.80 1001.45 1001.78 1002.41 1001.96 1002.12 1001.81 1001.99 1001.90 1001.26 1001.27 1000.55 999.21 998.52 998.54 998.70 999.38 999.68 999.89 1000.33 1000.98 1001.46 1001.11 1000.40 999.76 999.95 999.92 999.54 998.62 998.76 998.74 998.53 998.50 997.79 997.98 998.37 999.55 1000.14 1000.90 1001.48 1002.33 1003.24 1004.31
Thickness
5616 5616 5617 5615 5613 5611 5610 5609 5605 5603 5606 5608 5609 5610 5611 5611 5611 5615 5620 5632 5634 5633 5637 5647 5654 5661 5665 5665 5675 5682 5667 5673 5686 5691 5700 5712 5707 5725 5730 5724 5733 5742 5743 5747 5748
5611 5610 5610 5609 5606 5603 5603 5602 5599 5596 5596 5598 5599 5599 5601 5603 5606 5612 5622 5622 5622 5625 5631 5638 5644 5654 5653 5659 5665 5663 5663 5677 5701 5703 5697 5706 5706 5712 5712 5720 5727 5735 5747 5750 5749
5606 5604 5603 5602 5599 5595 5596 5596 5596 5593 5591 5590 5590 5590 5591 5593 5597 5613 5619 5618 5618 5618 5626 5632 5635 5639 5643 5656 5660 5664 5660 5687 5695 5700 5695 5694 5701 5714 5708 5707 5721 5724 5733 5741 5743
5601 5599 5597 5596 5593 5589 5588 5590 5590 5588 5586 5584 5583 5582 5582 5586 5588 5611 5612 5612 5610 5611 5617 5623 5624 5624 5629 5638 5659 5652 5669 5680 5690 5691 5684 5687 5700 5703 5710 5714 5726 5730 5734 5736 5735
5597 5593 5591 5590 5586 5583 5582 5582 5583 5583 5580 5577 5575 5574 5574 5577 5591 5598 5595 5597 5603 5605 5607 5613 5615 5618 5625 5641 5643 5648 5664 5677 5683 5686 5683 5688 5690 5697 5705 5716 5725 5733 5735 5734 5736
5593 5589 5584 5584 5580 5577 5574 5574 5575 5576 5573 5570 5567 5565 5566 5570 5591 5591 5589 5588 5589 5594 5599 5603 5608 5617 5621 5626 5637 5649 5662 5667 5679 5677 5680 5678 5692 5697 5709 5712 5723 5731 5734 5735 5736
5589 5584 5580 5578 5574 5570 5568 5567 5567 5568 5565 5561 5557 5557 5559 5568 5576 5576 5575 5576 5579 5579 5585 5587 5597 5602 5612 5613 5637 5640 5641 5657 5665 5673 5675 5683 5682 5692 5706 5712 5719 5725 5734 5734 5729
5584 5581 5577 5573 5569 5564 5561 5559 5558 5558 5556 5554 5548 5546 5550 5559 5557 5559 5561 5560 5564 5569 5573 5580 5578 5583 5590 5609 5622 5626 5631 5626 5658 5669 5679 5674 5678 5698 5713 5713 5714 5724 5728 5724 5720
5580 5577 5573 5568 5564 5557 5554 5551 5551 5548 5545 5543 5537 5534 5541 5551 5545 5548 5550 5551 5554 5555 5557 5562 5566 5565 5568 5578 5588 5615 5623 5630 5638 5671 5678 5672 5680 5697 5709 5709 5709 5720 5726 5720 5717
5576 5573 5569 5564 5558 5551 5544 5543 5542 5538 5535 5530 5528 5520 5536 5537 5539 5540 5540 5538 5537 5538 5538 5544 5543 5548 5551 5565 5583 5617 5625 5632 5639 5668 5674 5670 5679 5690 5702 5706 5710 5717 5727 5718 5713
5572 5568 5564 5560 5553 5545 5535 5532 5525 5522 5527 5537 5534 5535 5533 5535 5530 5525 5526 5522 5518 5517 5518 5531 5521 5533 5557 5572 5609 5625 5625 5627 5661 5678 5671 5674 5674 5689 5702 5705 5708 5716 5720 5715 5709
5567 5563 5559 5555 5548 5538 5529 5529 5532 5529 5523 5524 5526 5522 5521 5516 5514 5513 5513 5505 5501 5505 5511 5505 5507 5545 5566 5572 5584 5608 5622 5639 5664 5669 5661 5665 5672 5694 5701 5706 5713 5717 5717 5712 5704
5561 5557 5553 5548 5541 5532 5528 5527 5521 5518 5505 5506 5518 5514 5507 5502 5502 5505 5500 5497 5500 5495 5500 5497 5528 5538 5549 5558 5582 5603 5620 5645 5648 5658 5659 5656 5665 5686 5701 5706 5717 5717 5721 5714 5700
5555 5551 5547 5541 5531 5536 5530 5522 5512 5505 5492 5511 5506 5505 5495 5484 5485 5494 5497 5492 5493 5495 5500 5493 5509 5509 5543 5556 5581 5599 5635 5640 5642 5640 5641 5660 5657 5697 5709 5701 5699 5706 5712 5706 5698
5550 5546 5542 5537 5539 5530 5520 5513 5502 5493 5511 5516 5501 5498 5494 5481 5501 5500 5497 5489 5489 5495 5476 5495 5517 5511 5545 5561 5587 5615 5635 5634 5639 5639 5637 5642 5646 5691 5707 5698 5702 5705 5705 5699 5693
5545 5542 5538 5531 5528 5526 5512 5504 5494 5489 5514 5505 5493 5489 5484 5480 5493 5496 5492 5489 5491 5490 5487 5513 5528 5542 5569 5569 5589 5618 5623 5625 5626 5628 5615 5649 5657 5683 5695 5698 5708 5703 5697 5693 5688
5541 5539 5535 5534 5533 5519 5504 5497 5495 5511 5516 5503 5494 5485 5491 5490 5491 5491 5482 5483 5483 5478 5494 5513 5509 5538 5554 5569 5588 5610 5606 5588 5589 5599 5634 5667 5662 5688 5691 5694 5700 5696 5691 5687 5682
5538 5536 5533 5530 5524 5511 5501 5490 5513 5536 5519 5498 5496 5499 5497 5502 5501 5493 5476 5488 5495 5492 5504 5522 5528 5540 5568 5584 5594 5601 5612 5621 5609 5620 5646 5649 5646 5677 5695 5693 5698 5697 5691 5683 5676
5533 5532 5532 5528 5520 5507 5499 5501 5528 5531 5512 5501 5494 5499 5503 5509 5509 5502 5486 5508 5516 5505 5507 5536 5547 5544 5570 5586 5605 5598 5615 5635 5640 5657 5663 5657 5671 5682 5686 5682 5685 5691 5685 5677 5673
5530 5527 5532 5528 5519 5504 5503 5519 5519 5524 5509 5505 5510 5519 5518 5515 5511 5515 5515 5533 5525 5520 5509 5541 5549 5545 5575 5594 5594 5616 5635 5618 5638 5633 5642 5662 5670 5671 5677 5684 5681 5682 5681 5675 5671
5522 5522 5539 5531 5514 5508 5510 5516 5517 5521 5513 5503 5509 5519 5533 5532 5531 5529 5534 5542 5542 5537 5526 5548 5537 5553 5580 5582 5592 5598 5617 5628 5646 5652 5659 5657 5667 5689 5681 5682 5682 5681 5681 5674 5667
5519 5524 5528 5522 5514 5514 5517 5514 5521 5524 5517 5511 5516 5530 5543 5550 5544 5541 5544 5551 5558 5555 5542 5556 5565 5558 5568 5585 5612 5614 5620 5633 5637 5634 5655 5660 5657 5678 5678 5677 5679 5681 5676 5672 5663
5519 5530 5522 5522 5523 5519 5521 5520 5518 5526 5528 5519 5523 5537 5552 5554 5548 5548 5552 5569 5561 5562 5563 5574 5584 5571 5564 5576 5592 5605 5614 5626 5640 5641 5649 5652 5657 5675 5675 5673 5671 5671 5671 5666 5657
5520 5530 5526 5519 5529 5535 5527 5531 5529 5535 5530 5532 5539 5552 5553 5556 5563 5561 5562 5574 5575 5576 5578 5585 5597 5614 5608 5612 5603 5610 5617 5627 5638 5635 5646 5656 5659 5665 5666 5663 5664 5666 5665 5659 5651
5515 5537 5544 5532 5529 5533 5539 5544 5543 5546 5543 5542 5540 5556 5560 5559 5563 5569 5572 5577 5578 5578 5582 5585 5602 5619 5629 5629 5631 5626 5623 5621 5625 5642 5642 5659 5658 5673 5672 5667 5666 5664 5660 5653 5646
5519 5536 5539 5542 5542 5539 5537 5546 5546 5546 5551 5549 5549 5562 5570 5573 5576 5577 5579 5586 5585 5586 5586 5591 5599 5613 5613 5622 5627 5625 5631 5633 5637 5645 5650 5657 5665 5680 5680 5674 5662 5659 5653 5647 5640
5514 5527 5541 5559 5557 5547 5557 5553 5557 5555 5556 5563 5557 5563 5576 5582 5589 5595 5596 5598 5599 5593 5589 5588 5592 5603 5606 5614 5615 5612 5636 5639 5645 5651 5651 5650 5664 5672 5655 5654 5651 5653 5649 5643 5637